Temp
97 94 80 81 80 80 80 81 81 80 80 80 80 80 79 79 80 80 80 80 80 81 81 81 81 81 81 81 80 80 80 80 80 80 80 80 80 79 79 79 80 90 79
100 93 80 80 80 80 80 81 80 80 80 80 80 79 79 79 80 80 80 80 80 81 81 81 81 81 81 81 80 80 80 80 80 80 80 80 80 80 79 80 80 83 79
97 92 88 80 80 80 80 80 80 79 80 80 80 79 79 79 79 79 79 80 81 81 81 81 81 81 81 81 80 80 80 80 80 80 81 95 92 80 80 80 79 79 78
96 92 92 79 80 80 79 79 79 79 79 79 79 79 79 79 79 79 79 80 81 81 81 81 81 81 81 81 80 80 80 80 80 81 92 96 95 80 80 80 79 79 78
96 95 91 79 79 79 79 79 79 79 79 79 79 79 79 79 79 79 79 80 81 81 81 81 81 81 80 80 80 80 80 80 80 83 96 97 96 85 80 80 79 79 79
99 97 82 79 79 79 79 79 79 79 79 79 79 79 79 79 78 78 79 80 80 81 81 81 80 80 80 80 80 79 80 80 79 96 95 92 91 79 80 80 80 80 79
99 98 90 78 79 79 79 79 78 79 78 79 79 79 79 78 78 78 79 79 80 80 81 81 80 79 79 79 79 79 79 80 90 98 95 92 93 80 80 80 79 79 79
98 96 91 80 78 78 79 79 78 78 78 78 79 79 78 78 78 78 79 79 79 80 80 80 79 79 78 78 79 79 79 79 90 94 93 94 82 78 79 80 79 79 79
98 97 92 90 84 78 78 78 78 78 78 78 78 78 78 78 78 78 78 79 79 79 79 79 79 78 78 78 78 78 78 79 88 95 94 96 79 78 79 80 79 79 79
98 98 94 92 93 90 88 78 78 78 78 77 77 77 77 78 78 78 77 78 79 79 79 79 78 78 78 78 77 77 78 79 90 95 96 98 78 79 80 79 79 79 78
98 98 98 97 94 94 93 87 79 78 78 78 79 78 78 91 88 86 84 79 78 78 78 78 78 78 78 78 78 78 78 94 96 96 98 82 78 78 79 79 79 79 78
96 97 98 96 94 95 96 91 89 90 90 89 89 87 91 92 92 92 87 78 78 78 78 78 78 78 78 94 94 80 91 96 96 96 97 81 78 78 79 79 79 79 78
97 97 98 92 92 94 96 94 93 94 93 91 90 89 90 92 91 91 93 90 88 81 91 85 87 89 93 95 96 96 96 95 96 97 95 80 78 79 80 79 79 79 78
97 96 96 93 89 90 95 94 94 94 94 92 92 88 89 89 89 90 93 94 91 94 92 91 94 92 91 91 91 92 93 94 96 96 95 80 78 78 79 79 79 79 78
96 96 95 93 89 88 89 93 93 92 93 93 92 90 91 91 89 91 91 92 93 94 93 92 92 91 91 91 91 91 92 92 92 93 94 82 78 77 78 79 80 79 79
96 95 95 93 90 90 88 89 90 91 93 93 93 92 88 90 89 91 90 90 91 93 94 93 92 91 91 92 91 91 90 91 91 91 94 94 78 76 76 78 79 80 80
96 95 93 92 91 88 87 88 89 92 93 92 92 90 89 88 88 87 90 90 92 92 90 90 89 90 89 91 89 91 91 91 91 90 91 92 93 78 77 76 77 78 79
94 94 93 96 93 88 88 89 91 92 92 92 93 92 89 88 87 85 89 90 92 91 91 91 91 90 91 91 90 91 91 91 91 90 91 92 94 95 85 77 77 77 78
92 91 93 92 93 90 87 90 89 89 90 92 93 92 90 89 86 86 89 90 86 89 89 88 89 87 87 88 90 91 90 90 89 92 90 90 90 92 94 87 77 76 77
88 89 88 91 90 89 90 88 90 90 90 92 92 92 88 85 87 86 89 88 86 88 89 87 82 86 83 86 87 88 89 91 91 90 89 91 91 91 92 91 92 90 76
83 82 82 83 87 87 88 87 88 87 89 91 91 90 89 89 89 85 89 88 87 86 86 85 85 83 84 86 84 83 86 88 87 89 90 91 91 92 92 93 91 92 92
80 77 78 82 81 83 88 88 90 90 91 91 91 88 88 87 87 87 86 87 86 88 82 82 80 82 85 86 80 80 77 83 88 90 91 89 89 92 93 92 91 90 90
77 79 79 82 82 82 85 85 84 88 87 86 87 87 86 87 87 86 86 86 85 84 87 82 81 79 81 84 82 79 75 75 82 88 88 90 87 89 91 91 90 89 88
80 84 84 82 82 83 81 82 81 85 85 88 87 88 86 86 86 86 85 85 83 87 84 83 83 81 80 79 83 83 80 78 73 73 84 87 89 86 85 88 89 89 87
83 83 82 81 81 81 81 83 84 84 87 87 88 83 83 83 84 86 85 84 83 84 83 80 80 78 82 81 81 81 80 81 78 74 72 78 85 88 90 90 89 88 87
80 81 81 80 79 81 82 82 81 81 83 86 85 86 87 88 87 84 85 83 82 81 81 81 79 78 77 79 81 80 80 78 78 77 76 77 78 82 87 89 89 89 87
MSLP
1006.31 1007.59 1009.13 1009.65 1010.01 1010.22 1010.40 1010.71 1011.04 1011.41 1011.77 1012.20 1012.57 1012.98 1013.16 1013.42 1013.55 1013.79 1014.16 1014.47 1014.73 1014.88 1014.99 1015.07 1015.16 1015.26 1015.31 1015.42 1015.58 1015.68 1015.75 1015.75 1015.80 1015.83 1015.93 1016.07 1016.22 1016.33 1016.38 1016.37 1016.11 1015.51 1016.56
1006.29 1007.80 1009.23 1009.71 1010.10 1010.34 1010.57 1010.82 1011.16 1011.56 1011.97 1012.38 1012.65 1013.02 1013.40 1013.64 1013.80 1013.96 1014.31 1014.62 1014.89 1015.04 1015.19 1015.29 1015.40 1015.48 1015.59 1015.72 1015.81 1015.88 1015.93 1015.96 1015.95 1016.01 1016.08 1016.16 1016.36 1016.42 1016.39 1016.35 1016.33 1016.25 1016.64
1006.49 1007.86 1009.05 1009.82 1010.25 1010.62 1010.78 1011.03 1011.30 1011.72 1012.14 1012.47 1012.76 1013.11 1013.45 1013.76 1014.02 1014.23 1014.50 1014.73 1014.97 1015.21 1015.37 1015.49 1015.62 1015.73 1015.83 1015.89 1015.96 1016.01 1016.06 1016.09 1016.20 1016.26 1016.07 1014.99 1015.23 1016.42 1016.63 1016.73 1016.75 1016.74 1016.70
1006.68 1007.76 1008.67 1009.94 1010.36 1010.80 1011.11 1011.33 1011.56 1011.84 1012.32 1012.72 1013.01 1013.31 1013.52 1013.88 1014.24 1014.53 1014.67 1014.85 1015.09 1015.36 1015.54 1015.66 1015.78 1015.89 1015.95 1016.00 1016.09 1016.18 1016.25 1016.28 1016.33 1016.27 1015.15 1014.87 1014.93 1016.23 1016.40 1016.57 1016.67 1016.69 1016.66
1006.87 1007.68 1008.70 1010.02 1010.51 1010.88 1011.30 1011.60 1011.81 1012.11 1012.45 1012.89 1013.14 1013.42 1013.75 1013.97 1014.37 1014.68 1014.91 1015.00 1015.19 1015.46 1015.64 1015.76 1015.89 1015.96 1016.02 1016.08 1016.17 1016.26 1016.34 1016.41 1016.38 1016.02 1014.85 1014.92 1015.00 1015.75 1016.47 1016.52 1016.47 1016.52 1016.55
1006.52 1007.55 1009.28 1009.95 1010.52 1011.07 1011.34 1011.72 1012.02 1012.29 1012.64 1012.89 1013.24 1013.60 1013.89 1014.09 1014.44 1014.74 1014.98 1015.08 1015.20 1015.44 1015.61 1015.72 1015.85 1015.98 1016.08 1016.18 1016.26 1016.34 1016.44 1016.48 1016.42 1014.82 1015.11 1015.23 1015.55 1015.93 1016.19 1016.48 1016.58 1016.53 1016.72
1006.40 1007.25 1009.11 1010.06 1010.49 1010.92 1011.40 1011.67 1012.10 1012.53 1012.84 1013.04 1013.38 1013.74 1014.05 1014.19 1014.46 1014.78 1014.97 1015.12 1015.24 1015.46 1015.67 1015.80 1015.96 1016.11 1016.21 1016.30 1016.39 1016.49 1016.60 1016.56 1015.94 1014.56 1014.91 1015.23 1015.00 1015.90 1016.26 1016.41 1016.46 1016.55 1016.66
1006.57 1007.44 1008.93 1010.24 1010.67 1011.07 1011.57 1012.01 1012.26 1012.64 1012.92 1013.25 1013.50 1013.89 1014.19 1014.39 1014.59 1014.92 1015.14 1015.33 1015.42 1015.58 1015.81 1016.02 1016.17 1016.32 1016.46 1016.56 1016.65 1016.75 1016.79 1016.71 1015.77 1014.94 1015.00 1014.96 1015.58 1015.94 1016.14 1016.39 1016.35 1016.43 1016.61
1006.94 1007.64 1008.83 1009.74 1010.66 1011.33 1011.74 1012.19 1012.57 1012.75 1013.06 1013.30 1013.56 1013.93 1014.22 1014.50 1014.69 1014.97 1015.21 1015.42 1015.56 1015.73 1015.93 1016.12 1016.25 1016.41 1016.55 1016.65 1016.72 1016.73 1016.76 1016.69 1016.10 1014.86 1014.90 1014.74 1015.58 1015.95 1016.03 1016.06 1016.07 1016.15 1016.25
1006.85 1007.50 1008.49 1009.24 1009.98 1010.79 1011.52 1012.29 1012.79 1012.99 1013.20 1013.40 1013.63 1013.95 1014.26 1014.60 1014.79 1015.00 1015.18 1015.29 1015.40 1015.56 1015.77 1015.96 1016.10 1016.25 1016.39 1016.47 1016.46 1016.52 1016.55 1016.40 1015.61 1014.68 1014.43 1014.32 1015.36 1015.79 1015.79 1015.81 1015.81 1015.77 1015.93
1006.56 1007.31 1008.04 1008.74 1009.46 1010.06 1010.71 1011.80 1012.72 1013.20 1013.42 1013.53 1013.73 1014.04 1014.27 1013.90 1014.26 1014.51 1014.55 1014.85 1015.18 1015.42 1015.59 1015.71 1015.81 1015.92 1016.06 1016.04 1015.98 1016.06 1016.15 1014.91 1014.25 1014.22 1013.96 1014.40 1014.91 1015.20 1015.36 1015.34 1015.25 1015.30 1015.49
1006.37 1006.99 1007.64 1008.45 1009.13 1009.56 1010.01 1011.01 1011.85 1012.33 1012.67 1012.88 1013.09 1013.52 1013.42 1013.28 1013.44 1013.57 1013.97 1014.83 1015.20 1015.36 1015.40 1015.44 1015.55 1015.61 1015.66 1014.54 1014.38 1015.35 1014.79 1013.96 1013.89 1013.73 1013.51 1014.07 1014.46 1014.76 1014.73 1014.70 1014.63 1014.61 1014.64
1006.18 1006.78 1007.47 1008.57 1009.21 1009.46 1009.62 1010.37 1011.01 1011.28 1011.63 1012.25 1012.55 1012.92 1013.04 1013.00 1013.33 1013.68 1013.52 1014.05 1014.46 1014.80 1014.35 1014.64 1014.68 1014.71 1014.02 1013.74 1013.55 1013.61 1013.57 1013.69 1013.38 1013.06 1012.97 1013.56 1013.94 1014.25 1014.36 1014.29 1014.18 1014.16 1014.16
1005.92 1006.63 1007.46 1008.45 1009.25 1009.55 1009.32 1010.02 1010.33 1010.54 1010.87 1011.44 1011.89 1012.56 1012.60 1012.89 1012.96 1012.98 1012.84 1012.90 1013.43 1013.24 1013.38 1013.62 1013.36 1013.58 1013.75 1013.84 1013.82 1013.61 1013.44 1013.37 1012.96 1012.73 1012.59 1013.00 1013.33 1013.55 1013.56 1013.51 1013.53 1013.72 1013.84
1005.79 1006.51 1007.21 1008.04 1008.85 1009.39 1009.64 1009.75 1009.92 1010.24 1010.54 1010.81 1011.35 1011.94 1012.10 1012.26 1012.48 1012.61 1012.65 1012.68 1012.57 1012.60 1012.81 1013.09 1013.09 1013.25 1013.26 1013.25 1013.22 1013.13 1012.95 1012.83 1012.76 1012.71 1012.37 1012.41 1012.80 1013.16 1013.10 1012.97 1012.91 1012.82 1012.88
1005.53 1006.19 1007.02 1007.76 1008.56 1009.10 1009.44 1009.55 1009.76 1010.06 1010.09 1010.61 1010.87 1011.22 1011.98 1011.94 1012.01 1012.27 1012.52 1012.55 1012.40 1012.42 1012.43 1012.51 1012.58 1012.80 1012.72 1012.60 1012.51 1012.53 1012.55 1012.47 1012.24 1012.06 1011.68 1011.40 1011.65 1012.03 1012.14 1012.30 1012.55 1012.57 1012.45
1005.56 1006.00 1006.53 1007.39 1008.09 1008.70 1009.11 1009.44 1009.55 1009.48 1009.77 1010.01 1010.33 1010.96 1011.51 1011.93 1011.90 1012.17 1012.02 1012.02 1011.90 1012.06 1012.41 1012.44 1012.45 1012.41 1012.48 1012.27 1012.12 1012.08 1011.92 1011.81 1011.61 1011.59 1011.42 1010.96 1010.58 1010.74 1010.91 1011.20 1011.35 1011.35 1011.61
1005.90 1005.63 1006.10 1006.60 1007.17 1008.13 1008.49 1008.89 1009.07 1009.04 1009.41 1009.52 1009.78 1010.15 1010.95 1011.35 1011.64 1011.96 1011.85 1011.66 1011.62 1011.78 1011.81 1011.98 1011.93 1011.77 1011.63 1011.49 1011.32 1011.27 1011.11 1010.91 1010.90 1010.81 1010.63 1010.29 1009.83 1009.58 1009.50 1009.85 1010.06 1010.45 1010.47
1005.95 1006.05 1005.90 1006.32 1006.71 1007.43 1008.23 1008.48 1008.83 1009.03 1009.29 1009.19 1009.37 1009.58 1010.21 1010.81 1011.26 1011.40 1011.32 1011.17 1011.71 1011.66 1011.62 1011.81 1011.70 1011.73 1011.57 1011.39 1011.07 1010.79 1010.66 1010.65 1010.47 1010.06 1009.76 1009.49 1009.32 1009.12 1008.84 1008.58 1008.99 1009.33 1009.37
1006.25 1006.20 1006.46 1006.30 1006.72 1007.16 1007.76 1008.33 1008.42 1008.54 1008.82 1008.69 1009.01 1009.22 1009.96 1010.66 1010.82 1010.91 1010.87 1011.09 1011.49 1011.47 1011.26 1011.62 1012.02 1011.80 1011.75 1011.49 1011.11 1010.47 1010.25 1009.90 1009.53 1009.41 1009.13 1008.84 1008.37 1008.19 1008.08 1007.92 1007.86 1007.78 1008.27
1006.17 1006.22 1006.42 1006.58 1006.62 1007.12 1007.36 1007.46 1007.68 1007.87 1008.13 1008.32 1008.63 1009.07 1009.59 1009.86 1010.17 1010.65 1010.60 1010.78 1011.25 1011.28 1011.24 1011.43 1011.58 1011.45 1011.32 1011.22 1010.83 1010.39 1009.66 1009.14 1008.83 1008.60 1008.40 1008.04 1007.39 1007.03 1006.92 1006.87 1007.24 1007.09 1006.69
1006.09 1006.18 1006.57 1006.53 1006.92 1007.23 1007.03 1007.18 1007.19 1007.40 1007.52 1007.92 1008.48 1009.05 1009.38 1009.67 1009.95 1010.18 1010.41 1010.55 1010.92 1010.81 1011.38 1011.57 1011.67 1011.25 1010.86 1010.73 1010.61 1010.19 1009.13 1008.38 1007.88 1007.49 1007.24 1007.24 1007.13 1006.79 1006.36 1006.30 1006.34 1006.38 1006.39
1005.56 1005.83 1006.43 1006.63 1006.60 1007.06 1007.00 1007.50 1008.10 1007.88 1007.97 1008.07 1008.17 1008.60 1009.08 1009.30 1009.71 1010.08 1010.43 1010.57 1010.70 1010.96 1010.47 1011.01 1011.19 1011.08 1010.65 1010.33 1010.43 1010.14 1009.15 1008.08 1007.54 1007.07 1006.39 1006.24 1006.68 1006.55 1006.22 1005.99 1005.99 1005.85 1006.02
1005.52 1005.87 1006.33 1006.61 1006.85 1007.12 1007.54 1007.75 1007.87 1007.43 1007.14 1007.31 1007.77 1008.21 1008.97 1009.49 1009.76 1009.90 1010.12 1010.34 1010.61 1010.31 1010.40 1010.61 1010.75 1010.96 1010.86 1010.18 1009.90 1009.84 1009.69 1009.39 1008.70 1007.62 1006.95 1006.18 1005.93 1006.05 1006.12 1005.89 1005.64 1005.41 1005.60
1005.34 1005.85 1006.37 1006.71 1006.99 1007.23 1007.33 1007.40 1007.65 1007.43 1007.31 1007.58 1007.86 1008.47 1008.84 1009.34 1009.60 1009.59 1009.84 1010.10 1010.30 1010.40 1010.25 1010.57 1010.55 1010.69 1010.37 1010.09 1009.65 1009.26 1009.15 1008.93 1008.70 1008.18 1006.94 1006.44 1005.89 1005.25 1004.78 1004.64 1004.91 1005.20 1005.03
1005.66 1005.91 1006.42 1006.62 1006.88 1007.00 1007.13 1007.43 1007.73 1007.76 1007.79 1007.67 1007.92 1008.03 1008.21 1008.63 1009.11 1009.57 1009.71 1009.88 1010.00 1010.00 1010.14 1010.20 1010.32 1010.33 1010.24 1009.93 1009.57 1009.13 1008.89 1008.41 1007.83 1007.30 1006.58 1005.91 1005.46 1005.18 1004.88 1004.51 1004.15 1004.22 1004.66
Wind_Speed
13 18 15 12 10 11 12 14 16 16 16 17 17 16 16 16 16 15 14 12 10 10 11 10 10 10 11 11 11 10 10 11 10 9 8 7 7 6 5 5 5 9 7
17 19 15 13 12 12 12 14 16 16 16 17 17 16 15 15 15 14 13 12 10 11 10 9 9 9 9 10 10 9 9 9 8 8 7 8 5 3 5 4 4 10 6
18 18 18 12 13 12 13 14 16 17 17 17 17 17 16 15 14 13 12 11 11 10 9 8 8 8 9 9 9 8 8 7 6 6 5 3 11 6 4 3 2 4 4
19 17 18 14 13 13 12 14 16 17 16 16 16 16 15 14 13 12 11 11 10 9 8 8 8 8 8 8 8 7 6 6 5 6 9 4 4 9 5 5 4 4 5
18 17 17 15 14 14 14 13 15 16 16 16 15 15 15 14 12 11 10 10 9 8 8 8 8 8 8 8 7 6 6 5 4 9 1 1 2 12 7 6 9 8 7
19 18 19 17 15 14 15 14 14 15 15 16 15 15 14 14 13 11 10 10 10 9 9 9 9 9 8 8 7 6 5 4 6 8 1 2 6 11 9 7 6 3 4
18 17 18 16 16 16 16 16 15 14 14 15 15 14 14 14 13 11 10 10 9 8 8 9 8 8 7 7 7 6 4 5 10 5 4 3 4 6 8 9 8 7 7
17 17 18 15 14 14 13 13 14 14 14 13 14 13 13 12 12 10 9 8 7 7 6 6 6 5 4 4 4 4 5 7 10 7 6 5 7 1 8 9 10 9 9
16 16 16 17 15 12 12 11 11 12 13 13 13 13 12 11 10 9 8 7 5 4 4 4 4 4 4 4 5 5 6 7 11 8 7 5 9 1 7 10 11 11 11
16 16 16 16 17 15 14 12 11 12 13 13 12 12 11 9 9 9 7 8 7 7 7 6 5 5 5 5 6 6 6 10 12 10 6 2 5 5 7 9 12 13 12
14 15 15 16 16 15 15 14 12 12 11 11 11 10 11 10 11 12 10 10 9 8 8 8 8 7 6 9 10 9 8 9 8 6 6 9 6 9 10 10 11 14 14
16 16 14 14 15 15 12 14 14 13 12 11 11 12 10 10 9 8 7 8 8 9 8 9 9 9 9 9 8 12 8 8 7 7 7 9 8 11 13 12 13 14 16
15 13 14 13 13 14 11 10 8 8 8 9 12 11 10 8 7 7 6 7 8 13 8 12 10 9 11 7 6 6 7 7 7 7 8 10 11 13 13 13 14 15 16
14 14 15 16 14 13 9 9 10 9 9 9 10 12 9 7 7 7 6 7 6 6 6 7 6 6 7 8 10 10 10 9 7 6 9 10 13 14 16 16 16 15 15
12 14 15 15 15 13 12 10 10 10 9 10 10 12 10 9 8 8 7 7 6 6 6 7 7 7 8 9 10 11 11 11 11 8 8 7 11 13 17 18 17 16 18
11 13 14 15 15 15 14 13 10 9 10 9 9 10 13 9 8 8 8 8 8 7 7 7 8 8 8 9 11 12 12 12 12 12 10 11 13 16 18 18 17 17 17
13 12 14 15 16 16 16 14 11 10 10 10 10 12 12 12 10 9 8 8 8 7 8 8 9 9 10 10 12 11 11 13 13 14 13 12 12 17 18 18 20 18 19
13 14 14 13 16 16 15 12 10 10 10 10 10 9 13 13 11 9 8 7 7 6 7 8 8 8 9 9 9 9 10 11 13 14 13 13 12 12 13 20 19 19 19
11 13 12 14 15 15 14 11 11 10 10 10 9 9 12 12 10 9 8 7 5 8 7 7 7 8 9 10 11 10 11 11 12 12 15 15 15 14 12 11 18 18 19
10 10 11 11 13 13 10 10 9 10 10 10 9 9 10 10 13 9 8 7 6 7 7 7 8 8 7 10 11 12 12 12 12 13 14 15 16 17 15 16 13 13 21
9 8 10 10 11 9 10 10 10 10 9 10 9 10 10 10 11 10 9 8 8 7 6 6 7 9 8 9 9 12 13 14 15 14 13 14 16 16 16 14 11 11 10
9 8 8 10 8 10 8 7 8 9 8 7 8 9 10 10 10 10 8 6 7 6 6 7 7 8 9 8 9 11 13 12 12 13 13 11 15 13 14 14 14 14 12
9 9 10 9 10 10 9 5 4 4 4 7 7 8 9 9 8 9 9 8 6 7 7 7 8 8 9 8 10 11 11 13 13 12 11 10 11 10 12 12 14 14 12
9 9 10 9 9 8 9 9 9 8 7 6 7 6 7 9 9 10 9 9 8 7 5 6 6 8 7 9 9 10 12 14 14 15 13 13 11 10 13 11 13 13 12
7 7 7 9 10 9 10 7 8 7 4 5 5 7 7 8 9 9 10 10 9 8 7 9 7 8 8 9 9 10 11 10 13 13 15 13 14 14 13 11 10 12 12
5 6 7 9 8 8 7 5 1 1 2 2 4 4 6 7 8 11 12 11 10 9 9 9 10 11 10 9 10 9 10 11 11 13 14 13 14 13 13 13 12 10 11
Wind_Direction
158 141 154 148 144 141 140 149 149 144 141 145 148 148 144 142 138 136 135 130 127 124 123 119 120 118 116 120 121 123 122 118 119 120 116 113 115 114 119 120 211 113 104
148 144 149 145 141 143 141 145 144 143 144 148 147 146 145 143 139 137 137 135 131 128 129 127 124 124 126 125 128 133 132 132 137 127 126 145 133 153 149 158 329 92 113
146 147 157 144 140 141 142 143 141 141 145 147 146 147 145 141 139 136 136 136 136 134 135 133 133 135 135 137 141 144 145 149 146 139 204 235 117 146 157 151 100 118 137
144 151 155 148 141 138 139 140 138 139 141 144 146 144 141 138 138 138 138 141 139 140 143 147 150 148 148 152 154 153 155 160 164 183 218 104 125 146 171 168 163 171 173
150 155 142 150 144 140 143 141 140 139 142 145 144 141 140 138 139 139 141 142 145 150 155 160 163 162 164 166 167 172 180 186 200 236 18 21 303 136 172 193 182 191 211
153 156 138 151 148 147 146 145 144 143 145 145 143 142 143 141 142 145 151 153 158 165 170 172 175 177 180 183 189 194 201 218 250 242 333 108 279 122 173 200 254 229 210
155 155 155 156 155 155 155 152 150 149 147 145 144 145 149 149 151 158 164 168 170 175 182 185 187 189 194 195 204 212 232 256 269 296 308 281 347 137 191 205 215 225 217
152 150 152 157 158 156 157 154 152 152 148 148 149 152 155 156 157 164 166 173 178 184 191 196 200 206 217 227 243 267 280 283 268 267 291 289 80 151 215 221 220 224 229
155 158 157 166 162 157 158 158 158 155 154 154 154 156 160 161 162 166 168 175 177 181 193 206 215 234 251 264 272 276 282 283 284 287 281 267 101 38 227 233 228 229 226
164 162 163 169 171 174 168 164 168 164 164 160 158 160 160 158 166 175 168 184 189 194 201 206 217 228 235 245 252 259 265 265 254 263 262 266 76 276 247 251 244 231 229
171 164 171 172 171 178 173 168 169 172 169 158 162 163 160 192 185 176 201 151 191 205 208 209 215 221 230 233 227 228 242 252 264 253 267 132 182 235 254 242 241 236 231
176 173 173 179 173 182 176 165 187 180 185 187 186 177 202 204 198 221 181 184 213 220 221 221 223 223 221 245 199 201 232 250 256 259 256 154 209 244 244 244 235 230 227
181 181 178 182 180 192 185 173 189 185 184 191 192 186 208 196 198 207 213 204 221 204 234 198 209 225 240 260 250 251 262 257 256 259 258 178 215 243 254 249 243 237 229
187 187 184 180 185 199 189 189 192 195 189 194 194 193 201 209 202 222 215 215 211 225 223 235 248 245 260 251 263 273 266 265 266 266 265 193 224 231 240 242 241 242 240
195 193 192 189 189 191 207 192 206 206 194 198 194 195 209 212 211 215 226 236 237 228 227 240 244 250 256 250 253 253 255 259 262 267 272 237 224 238 248 250 239 229 235
215 205 201 197 193 197 201 206 201 203 195 209 204 206 211 217 211 225 223 229 235 238 245 250 250 261 260 266 263 258 261 265 262 263 260 262 214 219 235 244 251 254 240
249 221 205 204 198 203 203 204 208 202 214 205 209 209 207 214 218 235 232 234 231 233 246 250 252 247 254 255 258 260 262 262 260 259 259 258 260 217 222 224 235 235 242
269 229 214 206 200 202 207 204 210 214 210 213 212 206 211 215 221 212 235 231 236 237 241 248 250 254 258 263 265 267 267 263 258 258 259 261 259 261 220 214 220 226 232
267 258 227 211 214 202 208 212 213 210 221 216 215 209 200 213 213 224 225 224 212 237 237 261 261 269 284 275 274 264 260 261 266 264 263 261 257 257 260 247 208 217 222
265 237 234 227 217 204 205 210 211 212 216 218 212 213 198 211 210 209 234 235 220 243 243 215 248 289 275 276 288 283 286 278 269 265 261 257 254 254 251 252 252 227 216
246 227 221 212 214 198 200 202 208 213 213 213 212 208 203 211 206 204 228 207 227 247 259 277 263 251 272 281 298 277 266 254 250 253 257 263 260 254 252 249 245 251 243
244 219 221 220 188 211 204 211 216 211 200 204 200 200 212 211 216 217 232 212 224 249 227 247 250 274 273 277 271 284 284 272 265 257 248 253 267 271 263 249 251 253 255
242 221 214 200 187 198 207 178 200 172 191 192 194 195 201 206 199 212 209 238 214 241 238 216 239 266 283 286 278 285 285 281 299 298 278 262 253 267 275 265 261 259 248
253 230 206 189 184 180 173 189 201 208 201 201 185 179 167 194 199 205 215 219 223 247 249 232 241 266 273 281 279 265 273 286 287 289 281 277 264 251 255 265 274 261 255
215 187 182 175 178 160 174 198 198 232 189 175 176 163 214 193 217 222 223 227 226 230 224 250 253 248 274 271 280 285 282 269 266 267 280 282 276 277 264 252 260 282 270
189 171 156 153 142 143 144 135 122 126 306 244 212 217 219 219 212 229 233 231 232 237 239 237 241 247 255 273 277 281 278 280 284 282 283 279 276 278 279 278 279 262 265